Location: Unspecified
(43.8044°N, 11.0278°E)
Time: 01:54:15
(UTC+02:00)

Cosmos 2058 - Visible Passes

Search period start: 01 April 2015 00:00
Search period end: 11 April 2015 00:00
Orbit: 567 x 590 km, 82.5° (Epoch: 31 March)

Date Brightness Start Highest point End Pass type
(mag) Time Alt. Az. Time Alt. Az. Time Alt. Az.
01 Apr 6.1 21:39:17 10° WNW 21:40:56 12° W 21:42:22 10° WSW visible
02 Apr 2.9 20:04:53 10° N 20:09:01 79° E 20:13:08 10° SSE visible
03 Apr 3.2 20:09:33 10° NNW 20:13:41 75° W 20:17:47 10° S visible
04 Apr 3.8 20:14:16 10° NNW 20:18:19 53° W 20:22:18 10° S visible
05 Apr 4.6 20:19:03 10° NNW 20:22:54 38° W 20:26:43 10° SSW visible
06 Apr 5.3 20:23:56 10° NNW 20:27:29 28° W 20:30:59 10° SSW visible
07 Apr 5.9 20:28:54 10° NW 20:32:03 21° W 20:35:05 10° SW visible
08 Apr 6.1 20:34:04 10° NW 20:36:35 15° W 20:38:57 10° WSW visible
09 Apr 6.5 20:39:43 10° WNW 20:41:07 11° W 20:42:17 10° WSW visible
